Flag for Israel Weather past 2 weeks in Ramat Gan, Israel

Now
81 °F

Sunny.


Feels Like: 81 °F
Forecast: 68 / 84 °F
Wind: 9 mph from West

Location: Dov Airport

Current Time: Oct 25, 2014 at 2:34:25 PM

Latest Report: Oct 25, 2014 at 1:50 PM


Visibility: 10 mi

Pressure: 29.92 "Hg

Humidity: 51%

Dew point: 61 °F

Location of Ramat GanLocation

Historic Weather in Ramat Gan — Graph

°F

Ramat Gan temperature yesterday

Maximum temperature yesterday: 81 °F (at 12:50 PM)
Minimum temperature yesterday: 66 °F (at 5:50 AM)
Average temperature yesterday: 76 °F

Past Weeks' High & Low Weather Summary

 TemperatureHumidityPressure
High82 °F (Oct 10, 1:50 PM)94% (Oct 19, 5:50 PM)30.12 "Hg (Oct 19, 5:50 PM)
Low63 °F (Oct 21, 5:50 AM)37% (Oct 22, 9:50 AM)29.71 "Hg (Oct 19, 2:50 PM)
Average76 °F62%29.94 "Hg
* Reported Oct 10 12:50 PM — Oct 25 12:50 PM, Ramat Gan, Weather by CustomWeather, © 2014

Note: Actual official high and low records may vary slightly from our data, if they occured in-between our weather recording intervals... More about our weather records

Advertising

Ramat Gan weather history for previous 24 hours

 ConditionsComfort  
Time TempWeatherWind HumidityBarometerVisibility
12:50 PM
Oct 25
81 °FPassing clouds.7 mph48%29.95 "HgN/A
11:50 AM79 °FSunny.5 mph45%29.95 "Hg10 mi
10:50 AM79 °FSunny.3 mph45%29.98 "Hg10 mi
9:50 AM79 °FSunny.1 mph42%29.98 "Hg10 mi
8:50 AM72 °FPassing clouds.6 mph53%29.98 "HgN/A
7:50 AM66 °FSunny.6 mph64%29.98 "Hg10 mi
6:50 AM64 °FClear.6 mph68%29.98 "Hg10 mi
5:50 AM64 °FClear.5 mph68%29.98 "Hg10 mi
5:00 AM66 °FClear.5 mph68%29.98 "Hg10 mi
9:50 PM
Oct 24
73 °FClear.5 mph53%30.01 "Hg10 mi
8:50 PM73 °FClear.2 mph57%30.01 "Hg10 mi
7:50 PM75 °FClear.3 mph54%30.01 "Hg10 mi
6:50 PM77 °FClear.5 mph51%29.98 "Hg10 mi
5:50 PM79 °FSunny.8 mph48%29.98 "Hg10 mi
4:50 PM81 °FSunny.10 mph48%29.98 "Hg10 mi
3:50 PM81 °FPassing clouds.12 mph48%29.98 "HgN/A
2:50 PM81 °FSunny.13 mph42%30.01 "Hg10 mi
Weather by CustomWeather, © 2014

See weather overviewHow to use our weather pages